Location: Lane
(33.5226°N, 79.8788°W)
Time: 15:12:22
(UTC+00:00)

Transit 2A Rocket - Visible Passes

Search period start: 03 October 2022 00:00
Search period end: 13 October 2022 00:00
Orbit: 593 x 908 km, 66.7° (Epoch: 02 October)

Date Brightness Start Highest point End Pass type
(mag) Time Alt. Az. Time Alt. Az. Time Alt. Az.
03 Oct 4.6 10:23:13 10° SSW 10:27:35 79° ESE 10:31:53 10° NNE visible
04 Oct 6.0 09:40:47 10° S 09:44:47 36° ESE 09:48:44 10° NE visible
05 Oct 7.1 08:59:12 10° SSE 09:02:05 17° ESE 09:04:57 10° ENE visible
05 Oct 5.3 10:40:24 10° WSW 10:44:17 32° WNW 10:48:09 10° N visible
06 Oct 4.4 09:58:45 23° SW 10:01:20 66° WNW 10:05:36 10° NNE visible
07 Oct 4.9 09:18:10 56° SE 09:18:29 57° ESE 09:22:42 10° NE visible
08 Oct 6.9 08:37:22 21° ENE 08:37:22 21° ENE 08:39:21 10° NE visible
08 Oct 5.8 10:17:17 20° WNW 10:18:09 21° NW 10:21:30 10° N visible
09 Oct 5.4 09:36:18 33° NNW 09:36:18 33° NNW 09:39:13 10° NNE visible
10 Oct 6.7 08:55:11 20° NNE 08:55:11 20° NNE 08:56:31 10° NNE visible
11 Oct 6.7 09:53:51 12° NNW 09:53:51 12° NNW 09:54:32 10° NNW visible
12 Oct 7.1 09:12:31 11° N 09:12:31 11° N 09:12:40 10° N visible
